sat.trackr.live / text

‹ back to catalog

QIANFAN-81

NORAD 63167 · 2025-046J

PAYLOAD ACTIVE UNKNOWN

§ Identity

Operator
Country
PRC
Launch date
2025-03-11
Launch site
WSC
Launch vehicle
Mass (kg)
RCS (m²)

External: N2YO · Heavens-Above · Gunter

§ Orbital elements

Epoch: 2026-05-25T04:05:21.192288Z

Period
106.59 min
Inclination
88.9687°
Eccentricity
0.0015049
Mean motion
13.51013402 rev/d
Perigee alt
1,057.3 km
Apogee alt
1,079.7 km
Semi-major
7,446.7 km
B*
-1.0297e-5
RAAN
302.9317°
Arg perigee
17.0914°
Mean anomaly
343.0741°
Rev number
6,955

§ Raw data

QIANFAN-811 63167U 25046J   26145.17038417  .00000005  00000+0 -10297-4 0  99972 63167  88.9687 302.9317 0015049  17.0914 343.0741 13.51013402 69554

JSON: /api/v1/satellites/63167 · /tle

For live sub-satellite position, see the globe view (requires WebGL).

§ Visibility from observer

Set your observer location to see the next 7 days of passes ≥ 10°. The values pass through the URL so the page stays shareable.

No JS? Fill the form by hand. The geolocation button needs JavaScript.